Location: Maiden
(35.5760°N, 81.2120°W)
Time: 03:43:11
(UTC-04:00)

Vanguard 2 - Pass Details

Date: 10 August 2020
Orbit: 553 x 2937 km, 32.9° (Epoch: 20 September)

Event Time Altitude Azimuth Distance (km) Brightness Sun altitude
Rises 04:24:18 0° 277° (W) 4,802 - -24.5°
Reaches altitude 10° 04:29:12 10° 261° (W) 3,306 - -23.7°
Maximum altitude 04:34:01 17° 223° (SW) 2,301 - -23.0°
Drops below altitude 10° 04:37:44 10° 183° (S) 2,436 - -22.4°
Sets 04:40:37 0° 162° (SSE) 3,107 - -22.0°
